{"data":{"norad_id":57771,"epoch":"2026-09-20T03:28:22.378944Z","epoch_age_seconds":179146,"freshness":"STALE","line1":"1 57771U 23134A   26263.14470346  .00000602  00000+0  31385-4 0  9999","line2":"2 57771  43.0021 176.5319 0000872 263.1605  96.9147 15.27580266169241","mean_motion":15.27580266,"eccentricity":8.72e-5,"inclination_deg":43.0021,"raan_deg":176.5319,"arg_perigee_deg":263.1605,"mean_anomaly_deg":96.9147,"bstar":3.1385e-5,"rev_number":16924,"period_min":94.266732298832,"perigee_km":482.45000418196,"apogee_km":483.6465948982,"semimajor_km":6861.1852995401,"source":"CELESTRAK","updated_at":"2026-09-21T09:00:33.683186Z"}}